Location: *
(58.4167°N, 22.5000°E)
Time: 12:10:03
(UTC+00:00)

ALOS 2 - Pass Details

Date: 22 September 2019
Orbit: 630 x 632 km, 97.9° (Epoch: 16 October)

Event Time Altitude Azimuth Distance (km) Brightness Sun altitude
Exits shadow 21:15:31 38° 6° (N) 973 3.9 -29.9°
Drops below altitude 10° 21:18:23 10° 349° (N) 2,028 6.1 -30.1°
Sets 21:20:37 0° 346° (NNW) 2,940 7.2 -30.1°
